Regional Weather Roundup
Issued by NWS Cleveland, OH

Home | Current Version | Previous Version | Text Only | Print | Product List | Glossary On
Versions: 1 2 3 4 5 6 7 8 9 10 11 12 13 14 15 16 17 18 19 20 21 22 23 24 25 26 27 28 29 30 31 32 33 34 35 36 37 38 39 40 41 42 43 44 45 46 47 48 49 50
000
ASUS41 KCLE 261010
RWRCLE
OHIO REGIONAL WEATHER ROUNDUP
NATIONAL WEATHER SERVICE WILMINGTON, OH
500 AM EST FRI DEC 26 2014

NOTE: "FAIR" INDICATES FEW OR NO CLOUDS BELOW 12,000 FEET WITH NO
SIGNIFICANT WEATHER AND/OR OBSTRUCTIONS TO VISIBILITY.

OHZ001>008-015>018-024>027-034-035-043-044-261100-
   NORTHWEST OHIO

CITY           SKY/WX    TMP DP  RH WIND       PRES   REMARKS
DEFIANCE       CLEAR     33  30  88 S7        30.14F WCI  27
FINDLAY        CLEAR     32  28  85 S12       30.16F WCI  23
TOLEDO EXPRESS CLEAR     31  28  89 S6        30.14F WCI  25
TOLEDO METCALF CLEAR     30  26  85 S8        30.16F WCI  22
LIMA           CLEAR     34  29  82 S9        30.17S WCI  27
$$

OHZ009>014-019>023-028>033-038-089-261100-
   NORTHEAST OHIO

CITY           SKY/WX    TMP DP  RH WIND       PRES   REMARKS
CLE-HOPKINS    CLEAR     34  28  79 S10       30.23R WCI  26
CLE-LAKEFRONT  CLEAR     35  28  75 S7        30.21R WCI  29
CUY CO. ARPT   NOT AVBL
LORAIN-ELYRIA  CLEAR     31  28  89 S7        30.21R WCI  24
ASHTABULA      CLEAR     32  27  81 S5        30.22R WCI  27
AKRON-CANTON   CLEAR     31  26  82 SW7       30.22R WCI  24
WOOSTER        CLEAR     31  28  89 SW6       30.22R WCI  25
MANSFIELD      CLEAR     30  28  92 S8        30.20R WCI  22
YOUNGSTOWN     PTCLDY    34  28  79 S5        30.21R WCI  30
$$

OHZ042-051>053-060>062-070>072-077>081-261100-
  SOUTHWEST OHIO

CITY           SKY/WX    TMP DP  RH WIND       PRES   REMARKS
CINC-COVINGTON CLEAR     31  26  82 S6        30.21S WCI  25
CINC-LUNKEN    FOG       24  23  96 CALM      30.26R VSB 3/4
HAMILTON       CLEAR     28  25  88 E5        30.23S WCI  23
DAYTON         CLEAR     32  29  88 S7        30.20F WCI  26
WRIGHT-PAT AFB CLEAR     29  28  93 SE3       30.21S
DAYTON GENERAL CLEAR     30  28  92 S9        30.20S WCI  22
WILMINGTON     CLEAR     30  26  85 S7        30.21S WCI  23
$$

OHZ036-037-039>041-045>050-054>059-063>069-073>076-082>088-261100-
  CENTRAL AND SOUTHEAST OHIO

CITY           SKY/WX    TMP DP  RH WIND       PRES   REMARKS
COLUMBUS       CLEAR     31  28  89 CALM      30.23R
OSU AIRPORT    CLEAR     31  27  85 S6        30.22R WCI  25
BOLTON FIELD   CLEAR     29  28  95 MISG      30.22R
RICKENBACK AFB CLEAR     29  28  92 CALM      30.23R
NEWARK         CLEAR     29  26  89 CALM      30.23R
MARION         CLEAR     30  27  88 S8        30.21R WCI  22
LANCASTER      CLEAR     30  27  88 SE5       30.23S WCI  25
ZANESVILLE     CLEAR     28  25  88 S3        30.24R
NEW PHILLY     CLEAR     30  27  88 SE3       30.24R
$$



USA.gov is the U.S. government's official web portal to all federal, state and local government web resources and services.